LEMUR-2-NALLYWACKER (47457 NORAD) Tracking and Keplerian Element Data

This shows tracking and keplerian element data for the satellite.

Feedback or suggestion? Click here.




ElementValue
Catalog47457
NameLEMUR-2-NALLYWACKER
Epoch Orbit1256
Epoch Day105.70046737
Epoch Year2021
RAAN168.072
Inclination97.4995
Eccentricity0.0010401
Argument of Perigee325.8875
Mean Anonmoly34.1686
Mean Motion15.12815203
Decay Rate1.796E-05
L11 47457U 21006AW 21105.70046737 .00001796 00000-0 10585-3 0 9994
L22 47457 97.4995 168.0720 0010401 325.8875 34.1686 15.12815203 12560

Live tracking and technical data element details for LEMUR-2-NALLYWACKER (NORAD 47457). LEMUR-2-NALLYWACKER can be tracked NOW for your location showing map with azimuth and elevation plus other details from your city location.

Track the satellite on the map from your city or location and see movement details for azimuth, elevation, latitude, longitude, range, height, and movement on the map or in text.







IsCatalogInMostPopularTable: catalog: 47457, numindb: 16
Update: records affected: 1



GetName: 47457 LEMUR-2-NALLYWACKER

Hit Count: updated at: Fri, 16 Apr 2021 11:51:45 GMT